owner,sensor,date,latitude,longitude,relative_humidity,qcFlag 
DISL,ioos:station:DISL:KATA:1,2019-06-01T00:57:00Z,30.2583,-88.2131,66.56,11111222 
DISL,ioos:station:DISL:KATA:1,2019-06-01T01:57:00Z,30.2583,-88.2131,67.41,11111222 
DISL,ioos:station:DISL:KATA:1,2019-06-01T02:57:00Z,30.2583,-88.2131,68.84,11111222 
DISL,ioos:station:DISL:KATA:1,2019-06-01T03:57:00Z,30.2583,-88.2131,70.43,11111222 
DISL,ioos:station:DISL:KATA:1,2019-06-01T04:57:00Z,30.2583,-88.2131,71.18,11111222 
DISL,ioos:station:DISL:KATA:1,2019-06-01T05:57:00Z,30.2583,-88.2131,74.5,11111222 
DISL,ioos:station:DISL:KATA:1,2019-06-01T06:57:00Z,30.2583,-88.2131,76.23,11111222 
DISL,ioos:station:DISL:KATA:1,2019-06-01T07:57:00Z,30.2583,-88.2131,69.72,11111222 
DISL,ioos:station:DISL:KATA:1,2019-06-01T08:57:00Z,30.2583,-88.2131,67.23,11111222 
DISL,ioos:station:DISL:KATA:1,2019-06-01T09:57:00Z,30.2583,-88.2131,72.59,11111222 
DISL,ioos:station:DISL:KATA:1,2019-06-01T10:57:00Z,30.2583,-88.2131,71.58,11111222 
DISL,ioos:station:DISL:KATA:1,2019-06-01T11:57:00Z,30.2583,-88.2131,72.23,11111222 
DISL,ioos:station:DISL:KATA:1,2019-06-01T12:57:00Z,30.2583,-88.2131,75.52,11111222 
DISL,ioos:station:DISL:KATA:1,2019-06-01T13:57:00Z,30.2583,-88.2131,73.34,11111222 
DISL,ioos:station:DISL:KATA:1,2019-06-01T14:57:00Z,30.2583,-88.2131,68.96,11111222 
DISL,ioos:station:DISL:KATA:1,2019-06-01T15:57:00Z,30.2583,-88.2131,67.22,11111222 
DISL,ioos:station:DISL:KATA:1,2019-06-01T16:57:00Z,30.2583,-88.2131,71.93,11111222 
DISL,ioos:station:DISL:KATA:1,2019-06-01T17:57:00Z,30.2583,-88.2131,70.54,11111222 
DISL,ioos:station:DISL:KATA:1,2019-06-01T18:57:00Z,30.2583,-88.2131,74.17,11111222 
DISL,ioos:station:DISL:KATA:1,2019-06-01T19:57:00Z,30.2583,-88.2131,71.43,11111222 
DISL,ioos:station:DISL:KATA:1,2019-06-01T20:57:00Z,30.2583,-88.2131,67.91,11111222 
DISL,ioos:station:DISL:KATA:1,2019-06-01T21:57:00Z,30.2583,-88.2131,68.06,11111222 
DISL,ioos:station:DISL:KATA:1,2019-06-01T22:57:00Z,30.2583,-88.2131,68.01,11111222 
DISL,ioos:station:DISL:KATA:1,2019-06-01T23:57:00Z,30.2583,-88.2131,67.55,11111222 
DISL,ioos:station:DISL:KATA:1,2019-06-02T00:57:00Z,30.2583,-88.2131,69.48,11111222 
DISL,ioos:station:DISL:KATA:1,2019-06-02T01:57:00Z,30.2583,-88.2131,67.38,11111222 
DISL,ioos:station:DISL:KATA:1,2019-06-02T02:57:00Z,30.2583,-88.2131,71.75,11111222 
DISL,ioos:station:DISL:KATA:1,2019-06-02T03:57:00Z,30.2583,-88.2131,73.86,11111222 
DISL,ioos:station:DISL:KATA:1,2019-06-02T04:57:00Z,30.2583,-88.2131,70.26,11111222 
DISL,ioos:station:DISL:KATA:1,2019-06-02T05:57:00Z,30.2583,-88.2131,75.25,11111222 
DISL,ioos:station:DISL:KATA:1,2019-06-02T06:57:00Z,30.2583,-88.2131,78.91,11111222 
DISL,ioos:station:DISL:KATA:1,2019-06-02T07:57:00Z,30.2583,-88.2131,77.48,11111222 
DISL,ioos:station:DISL:KATA:1,2019-06-02T08:57:00Z,30.2583,-88.2131,75.55,11111222 
DISL,ioos:station:DISL:KATA:1,2019-06-02T09:57:00Z,30.2583,-88.2131,78.5,11111222 
DISL,ioos:station:DISL:KATA:1,2019-06-02T10:57:00Z,30.2583,-88.2131,77.38,11111222 
DISL,ioos:station:DISL:KATA:1,2019-06-02T11:57:00Z,30.2583,-88.2131,82.0,11111222 
DISL,ioos:station:DISL:KATA:1,2019-06-02T12:57:00Z,30.2583,-88.2131,77.45,11111222 
DISL,ioos:station:DISL:KATA:1,2019-06-02T13:57:00Z,30.2583,-88.2131,79.52,11111222 
DISL,ioos:station:DISL:KATA:1,2019-06-02T14:57:00Z,30.2583,-88.2131,72.8,11111222 
DISL,ioos:station:DISL:KATA:1,2019-06-02T15:57:00Z,30.2583,-88.2131,73.94,11111222 
DISL,ioos:station:DISL:KATA:1,2019-06-02T16:57:00Z,30.2583,-88.2131,66.78,11111222 
DISL,ioos:station:DISL:KATA:1,2019-06-02T17:57:00Z,30.2583,-88.2131,68.47,11111222 
DISL,ioos:station:DISL:KATA:1,2019-06-02T18:57:00Z,30.2583,-88.2131,60.37,11111222 
DISL,ioos:station:DISL:KATA:1,2019-06-02T19:57:00Z,30.2583,-88.2131,67.83,11111222 
DISL,ioos:station:DISL:KATA:1,2019-06-02T20:57:00Z,30.2583,-88.2131,63.93,11111222 
DISL,ioos:station:DISL:KATA:1,2019-06-02T21:57:00Z,30.2583,-88.2131,64.34,11111222 
DISL,ioos:station:DISL:KATA:1,2019-06-02T22:57:00Z,30.2583,-88.2131,63.76,11111222 
DISL,ioos:station:DISL:KATA:1,2019-06-02T23:57:00Z,30.2583,-88.2131,62.92,11111222 
DISL,ioos:station:DISL:KATA:1,2019-06-03T00:57:00Z,30.2583,-88.2131,61.13,11111222 
DISL,ioos:station:DISL:KATA:1,2019-06-03T01:57:00Z,30.2583,-88.2131,65.58,11111222 
DISL,ioos:station:DISL:KATA:1,2019-06-03T02:57:00Z,30.2583,-88.2131,66.94,11111222 
DISL,ioos:station:DISL:KATA:1,2019-06-03T03:57:00Z,30.2583,-88.2131,66.77,11111222 
DISL,ioos:station:DISL:KATA:1,2019-06-03T04:57:00Z,30.2583,-88.2131,62.97,11111222 
DISL,ioos:station:DISL:KATA:1,2019-06-03T05:57:00Z,30.2583,-88.2131,67.21,11111222 
DISL,ioos:station:DISL:KATA:1,2019-06-03T06:57:00Z,30.2583,-88.2131,64.12,11111222 
DISL,ioos:station:DISL:KATA:1,2019-06-03T07:57:00Z,30.2583,-88.2131,68.33,11111222 
DISL,ioos:station:DISL:KATA:1,2019-06-03T08:57:00Z,30.2583,-88.2131,72.09,11111222 
DISL,ioos:station:DISL:KATA:1,2019-06-03T09:57:00Z,30.2583,-88.2131,79.55,11111222 
DISL,ioos:station:DISL:KATA:1,2019-06-03T10:57:00Z,30.2583,-88.2131,71.01,11111222 
DISL,ioos:station:DISL:KATA:1,2019-06-03T11:57:00Z,30.2583,-88.2131,72.33,11111222 
DISL,ioos:station:DISL:KATA:1,2019-06-03T12:57:00Z,30.2583,-88.2131,64.5,11111222 
DISL,ioos:station:DISL:KATA:1,2019-06-03T13:57:00Z,30.2583,-88.2131,67.24,11111222 
DISL,ioos:station:DISL:KATA:1,2019-06-03T14:57:00Z,30.2583,-88.2131,65.36,11111222 
DISL,ioos:station:DISL:KATA:1,2019-06-03T15:57:00Z,30.2583,-88.2131,65.56,11111222 
DISL,ioos:station:DISL:KATA:1,2019-06-03T16:57:00Z,30.2583,-88.2131,64.51,11111222 
DISL,ioos:station:DISL:KATA:1,2019-06-03T17:57:00Z,30.2583,-88.2131,53.9,11111222 
DISL,ioos:station:DISL:KATA:1,2019-06-03T18:57:00Z,30.2583,-88.2131,58.47,11111222 
DISL,ioos:station:DISL:KATA:1,2019-06-03T19:57:00Z,30.2583,-88.2131,53.53,11111222 
DISL,ioos:station:DISL:KATA:1,2019-06-03T20:57:00Z,30.2583,-88.2131,54.78,11111222 
DISL,ioos:station:DISL:KATA:1,2019-06-03T21:57:00Z,30.2583,-88.2131,57.73,11111222 
DISL,ioos:station:DISL:KATA:1,2019-06-03T22:57:00Z,30.2583,-88.2131,60.85,11111222 
DISL,ioos:station:DISL:KATA:1,2019-06-03T23:57:00Z,30.2583,-88.2131,61.66,11111222 
DISL,ioos:station:DISL:KATA:1,2019-06-04T00:57:00Z,30.2583,-88.2131,63.36,11111222 
DISL,ioos:station:DISL:KATA:1,2019-06-04T01:57:00Z,30.2583,-88.2131,65.91,11111222 
DISL,ioos:station:DISL:KATA:1,2019-06-04T02:57:00Z,30.2583,-88.2131,65.21,11111222 
DISL,ioos:station:DISL:KATA:1,2019-06-04T03:57:00Z,30.2583,-88.2131,68.46,11111222 
DISL,ioos:station:DISL:KATA:1,2019-06-04T04:57:00Z,30.2583,-88.2131,69.11,11111222 
DISL,ioos:station:DISL:KATA:1,2019-06-04T05:57:00Z,30.2583,-88.2131,68.5,11111222 
DISL,ioos:station:DISL:KATA:1,2019-06-04T06:57:00Z,30.2583,-88.2131,67.85,11111222 
DISL,ioos:station:DISL:KATA:1,2019-06-04T07:57:00Z,30.2583,-88.2131,67.58,11111222 
DISL,ioos:station:DISL:KATA:1,2019-06-04T08:57:00Z,30.2583,-88.2131,68.23,11111222 
DISL,ioos:station:DISL:KATA:1,2019-06-04T09:57:00Z,30.2583,-88.2131,79.96,11111222 
DISL,ioos:station:DISL:KATA:1,2019-06-04T10:57:00Z,30.2583,-88.2131,78.23,11111222 
DISL,ioos:station:DISL:KATA:1,2019-06-04T11:57:00Z,30.2583,-88.2131,79.21,11111222 
DISL,ioos:station:DISL:KATA:1,2019-06-04T12:57:00Z,30.2583,-88.2131,78.09,11111222 
DISL,ioos:station:DISL:KATA:1,2019-06-04T13:57:00Z,30.2583,-88.2131,73.64,11111222 
DISL,ioos:station:DISL:KATA:1,2019-06-04T14:57:00Z,30.2583,-88.2131,69.49,11111222 
DISL,ioos:station:DISL:KATA:1,2019-06-04T15:57:00Z,30.2583,-88.2131,66.51,11111222 
DISL,ioos:station:DISL:KATA:1,2019-06-04T16:57:00Z,30.2583,-88.2131,73.9,11111222 
DISL,ioos:station:DISL:KATA:1,2019-06-04T17:57:00Z,30.2583,-88.2131,68.68,11111222 
DISL,ioos:station:DISL:KATA:1,2019-06-04T18:57:00Z,30.2583,-88.2131,68.17,11111222 
DISL,ioos:station:DISL:KATA:1,2019-06-04T19:57:00Z,30.2583,-88.2131,62.75,11111222 
DISL,ioos:station:DISL:KATA:1,2019-06-04T20:57:00Z,30.2583,-88.2131,60.61,11111222 
DISL,ioos:station:DISL:KATA:1,2019-06-04T21:57:00Z,30.2583,-88.2131,68.51,11111222 
DISL,ioos:station:DISL:KATA:1,2019-06-04T22:57:00Z,30.2583,-88.2131,67.19,11111222 
DISL,ioos:station:DISL:KATA:1,2019-06-04T23:57:00Z,30.2583,-88.2131,63.97,11111222 
DISL,ioos:station:DISL:KATA:1,2019-06-05T00:57:00Z,30.2583,-88.2131,67.37,11111222 
DISL,ioos:station:DISL:KATA:1,2019-06-05T01:57:00Z,30.2583,-88.2131,64.73,11111222 
DISL,ioos:station:DISL:KATA:1,2019-06-05T02:57:00Z,30.2583,-88.2131,64.06,11111222 
DISL,ioos:station:DISL:KATA:1,2019-06-05T03:57:00Z,30.2583,-88.2131,65.89,11111222 
DISL,ioos:station:DISL:KATA:1,2019-06-05T04:57:00Z,30.2583,-88.2131,66.43,11111222 
DISL,ioos:station:DISL:KATA:1,2019-06-05T05:57:00Z,30.2583,-88.2131,66.36,11111222 
DISL,ioos:station:DISL:KATA:1,2019-06-05T06:57:00Z,30.2583,-88.2131,69.04,11111222 
DISL,ioos:station:DISL:KATA:1,2019-06-05T07:57:00Z,30.2583,-88.2131,70.67,11111222 
DISL,ioos:station:DISL:KATA:1,2019-06-05T08:57:00Z,30.2583,-88.2131,72.74,11111222 
DISL,ioos:station:DISL:KATA:1,2019-06-05T09:57:00Z,30.2583,-88.2131,69.52,11111222 
DISL,ioos:station:DISL:KATA:1,2019-06-05T10:57:00Z,30.2583,-88.2131,70.4,11111222 
DISL,ioos:station:DISL:KATA:1,2019-06-05T11:57:00Z,30.2583,-88.2131,69.89,11111222 
DISL,ioos:station:DISL:KATA:1,2019-06-05T12:57:00Z,30.2583,-88.2131,69.28,11111222 
DISL,ioos:station:DISL:KATA:1,2019-06-05T13:57:00Z,30.2583,-88.2131,73.61,11111222 
DISL,ioos:station:DISL:KATA:1,2019-06-05T14:57:00Z,30.2583,-88.2131,69.91,11111222 
DISL,ioos:station:DISL:KATA:1,2019-06-05T15:57:00Z,30.2583,-88.2131,72.27,11111222 
DISL,ioos:station:DISL:KATA:1,2019-06-05T16:57:00Z,30.2583,-88.2131,70.62,11111222 
DISL,ioos:station:DISL:KATA:1,2019-06-05T17:57:00Z,30.2583,-88.2131,79.15,11111222 
DISL,ioos:station:DISL:KATA:1,2019-06-05T18:57:00Z,30.2583,-88.2131,83.8,11111222 
DISL,ioos:station:DISL:KATA:1,2019-06-05T19:57:00Z,30.2583,-88.2131,70.15,11111222 
DISL,ioos:station:DISL:KATA:1,2019-06-05T20:57:00Z,30.2583,-88.2131,83.4,11111222 
DISL,ioos:station:DISL:KATA:1,2019-06-05T21:57:00Z,30.2583,-88.2131,88.6,11111222 
DISL,ioos:station:DISL:KATA:1,2019-06-05T22:57:00Z,30.2583,-88.2131,78.73,11111222 
DISL,ioos:station:DISL:KATA:1,2019-06-05T23:57:00Z,30.2583,-88.2131,73.91,11111222 
DISL,ioos:station:DISL:KATA:1,2019-06-06T00:57:00Z,30.2583,-88.2131,77.58,11111222 
DISL,ioos:station:DISL:KATA:1,2019-06-06T01:57:00Z,30.2583,-88.2131,80.2,11111222 
DISL,ioos:station:DISL:KATA:1,2019-06-06T02:57:00Z,30.2583,-88.2131,75.88,11111222 
DISL,ioos:station:DISL:KATA:1,2019-06-06T03:57:00Z,30.2583,-88.2131,81.3,11111222 
DISL,ioos:station:DISL:KATA:1,2019-06-06T04:57:00Z,30.2583,-88.2131,81.3,11111222 
DISL,ioos:station:DISL:KATA:1,2019-06-06T05:57:00Z,30.2583,-88.2131,77.69,11111222 
DISL,ioos:station:DISL:KATA:1,2019-06-06T06:57:00Z,30.2583,-88.2131,86.9,11111222 
DISL,ioos:station:DISL:KATA:1,2019-06-06T07:57:00Z,30.2583,-88.2131,90.3,11111222 
DISL,ioos:station:DISL:KATA:1,2019-06-06T08:57:00Z,30.2583,-88.2131,100.0,11111222 
DISL,ioos:station:DISL:KATA:1,2019-06-06T09:57:00Z,30.2583,-88.2131,100.0,11111222 
DISL,ioos:station:DISL:KATA:1,2019-06-06T10:57:00Z,30.2583,-88.2131,100.0,11111222 
DISL,ioos:station:DISL:KATA:1,2019-06-06T11:57:00Z,30.2583,-88.2131,87.3,11111222 
DISL,ioos:station:DISL:KATA:1,2019-06-06T12:57:00Z,30.2583,-88.2131,87.9,11111222 
DISL,ioos:station:DISL:KATA:1,2019-06-06T13:57:00Z,30.2583,-88.2131,89.1,11111222 
DISL,ioos:station:DISL:KATA:1,2019-06-06T14:57:00Z,30.2583,-88.2131,90.6,11111222 
DISL,ioos:station:DISL:KATA:1,2019-06-06T15:57:00Z,30.2583,-88.2131,76.42,11111222 
DISL,ioos:station:DISL:KATA:1,2019-06-06T16:57:00Z,30.2583,-88.2131,79.35,11111222 
DISL,ioos:station:DISL:KATA:1,2019-06-06T17:57:00Z,30.2583,-88.2131,80.1,11111222 
DISL,ioos:station:DISL:KATA:1,2019-06-06T18:57:00Z,30.2583,-88.2131,82.2,11111222 
DISL,ioos:station:DISL:KATA:1,2019-06-06T19:57:00Z,30.2583,-88.2131,82.3,11111222 
DISL,ioos:station:DISL:KATA:1,2019-06-06T20:57:00Z,30.2583,-88.2131,81.5,11111222 
DISL,ioos:station:DISL:KATA:1,2019-06-06T21:57:00Z,30.2583,-88.2131,86.0,11111222 
DISL,ioos:station:DISL:KATA:1,2019-06-06T22:57:00Z,30.2583,-88.2131,73.82,11111222 
DISL,ioos:station:DISL:KATA:1,2019-06-06T23:57:00Z,30.2583,-88.2131,83.1,11111222 
DISL,ioos:station:DISL:KATA:1,2019-06-07T00:57:00Z,30.2583,-88.2131,82.0,11111222 
DISL,ioos:station:DISL:KATA:1,2019-06-07T01:57:00Z,30.2583,-88.2131,80.3,11111222 
DISL,ioos:station:DISL:KATA:1,2019-06-07T02:57:00Z,30.2583,-88.2131,80.1,11111222 
DISL,ioos:station:DISL:KATA:1,2019-06-07T03:57:00Z,30.2583,-88.2131,86.5,11111222 
DISL,ioos:station:DISL:KATA:1,2019-06-07T04:57:00Z,30.2583,-88.2131,88.0,11111222 
DISL,ioos:station:DISL:KATA:1,2019-06-07T05:57:00Z,30.2583,-88.2131,89.1,11111222 
DISL,ioos:station:DISL:KATA:1,2019-06-07T06:57:00Z,30.2583,-88.2131,89.4,11111222 
DISL,ioos:station:DISL:KATA:1,2019-06-07T07:57:00Z,30.2583,-88.2131,90.0,11111222 
DISL,ioos:station:DISL:KATA:1,2019-06-07T08:57:00Z,30.2583,-88.2131,89.8,11111222 
DISL,ioos:station:DISL:KATA:1,2019-06-07T09:57:00Z,30.2583,-88.2131,90.4,11111222 
DISL,ioos:station:DISL:KATA:1,2019-06-07T10:57:00Z,30.2583,-88.2131,89.3,11111222 
DISL,ioos:station:DISL:KATA:1,2019-06-07T11:57:00Z,30.2583,-88.2131,89.5,11111222 
DISL,ioos:station:DISL:KATA:1,2019-06-07T12:57:00Z,30.2583,-88.2131,88.4,11111222 
DISL,ioos:station:DISL:KATA:1,2019-06-07T13:57:00Z,30.2583,-88.2131,88.1,11111222 
DISL,ioos:station:DISL:KATA:1,2019-06-07T14:57:00Z,30.2583,-88.2131,86.9,11111222 
DISL,ioos:station:DISL:KATA:1,2019-06-07T15:57:00Z,30.2583,-88.2131,88.4,11111222 
DISL,ioos:station:DISL:KATA:1,2019-06-07T16:57:00Z,30.2583,-88.2131,86.5,11111222 
DISL,ioos:station:DISL:KATA:1,2019-06-07T17:57:00Z,30.2583,-88.2131,87.4,11111222 
DISL,ioos:station:DISL:KATA:1,2019-06-07T18:57:00Z,30.2583,-88.2131,87.2,11111222 
DISL,ioos:station:DISL:KATA:1,2019-06-07T19:57:00Z,30.2583,-88.2131,77.26,11111222 
DISL,ioos:station:DISL:KATA:1,2019-06-07T20:57:00Z,30.2583,-88.2131,82.4,11111222 
DISL,ioos:station:DISL:KATA:1,2019-06-07T21:57:00Z,30.2583,-88.2131,77.86,11111222 
DISL,ioos:station:DISL:KATA:1,2019-06-07T22:57:00Z,30.2583,-88.2131,79.11,11111222 
DISL,ioos:station:DISL:KATA:1,2019-06-07T23:57:00Z,30.2583,-88.2131,83.9,11111222 
DISL,ioos:station:DISL:KATA:1,2019-06-08T00:57:00Z,30.2583,-88.2131,82.2,11111222 
DISL,ioos:station:DISL:KATA:1,2019-06-08T01:57:00Z,30.2583,-88.2131,84.6,11111222 
DISL,ioos:station:DISL:KATA:1,2019-06-08T02:57:00Z,30.2583,-88.2131,75.65,11111222 
DISL,ioos:station:DISL:KATA:1,2019-06-08T03:57:00Z,30.2583,-88.2131,83.8,11111222 
DISL,ioos:station:DISL:KATA:1,2019-06-08T04:57:00Z,30.2583,-88.2131,79.99,11111222 
DISL,ioos:station:DISL:KATA:1,2019-06-08T05:57:00Z,30.2583,-88.2131,85.2,11111222 
DISL,ioos:station:DISL:KATA:1,2019-06-08T06:57:00Z,30.2583,-88.2131,86.0,11111222 
DISL,ioos:station:DISL:KATA:1,2019-06-08T07:57:00Z,30.2583,-88.2131,83.9,11111222 
DISL,ioos:station:DISL:KATA:1,2019-06-08T08:57:00Z,30.2583,-88.2131,81.5,11111222 
DISL,ioos:station:DISL:KATA:1,2019-06-08T09:57:00Z,30.2583,-88.2131,81.9,11111222 
DISL,ioos:station:DISL:KATA:1,2019-06-08T10:57:00Z,30.2583,-88.2131,85.1,11111222 
DISL,ioos:station:DISL:KATA:1,2019-06-08T11:57:00Z,30.2583,-88.2131,86.5,11111222 
DISL,ioos:station:DISL:KATA:1,2019-06-08T12:57:00Z,30.2583,-88.2131,81.7,11111222 
DISL,ioos:station:DISL:KATA:1,2019-06-08T13:57:00Z,30.2583,-88.2131,81.9,11111222 
DISL,ioos:station:DISL:KATA:1,2019-06-08T14:57:00Z,30.2583,-88.2131,82.2,11111222 
DISL,ioos:station:DISL:KATA:1,2019-06-08T15:57:00Z,30.2583,-88.2131,79.35,11111222 
DISL,ioos:station:DISL:KATA:1,2019-06-08T16:57:00Z,30.2583,-88.2131,81.2,11111222 
DISL,ioos:station:DISL:KATA:1,2019-06-08T17:57:00Z,30.2583,-88.2131,79.59,11111222 
DISL,ioos:station:DISL:KATA:1,2019-06-08T18:57:00Z,30.2583,-88.2131,84.9,11111222 
DISL,ioos:station:DISL:KATA:1,2019-06-09T00:27:00Z,30.2583,-88.2131,81.0,11111222 
DISL,ioos:station:DISL:KATA:1,2019-06-09T01:57:00Z,30.2583,-88.2131,76.5,11111222 
DISL,ioos:station:DISL:KATA:1,2019-06-09T02:57:00Z,30.2583,-88.2131,87.2,11111222 
DISL,ioos:station:DISL:KATA:1,2019-06-09T03:57:00Z,30.2583,-88.2131,83.4,11111222 
DISL,ioos:station:DISL:KATA:1,2019-06-09T04:57:00Z,30.2583,-88.2131,81.5,11111222 
DISL,ioos:station:DISL:KATA:1,2019-06-09T05:57:00Z,30.2583,-88.2131,83.0,11111222 
DISL,ioos:station:DISL:KATA:1,2019-06-09T06:57:00Z,30.2583,-88.2131,80.3,11111222 
DISL,ioos:station:DISL:KATA:1,2019-06-09T07:57:00Z,30.2583,-88.2131,77.08,11111222 
DISL,ioos:station:DISL:KATA:1,2019-06-09T08:57:00Z,30.2583,-88.2131,74.26,11111222 
DISL,ioos:station:DISL:KATA:1,2019-06-09T09:57:00Z,30.2583,-88.2131,78.26,11111222 
DISL,ioos:station:DISL:KATA:1,2019-06-09T10:57:00Z,30.2583,-88.2131,81.8,11111222 
DISL,ioos:station:DISL:KATA:1,2019-06-09T11:56:00Z,30.2583,-88.2131,83.3,11111222 
DISL,ioos:station:DISL:KATA:1,2019-06-09T12:56:00Z,30.2583,-88.2131,74.64,11111222 
DISL,ioos:station:DISL:KATA:1,2019-06-09T13:56:00Z,30.2583,-88.2131,69.99,11111222 
DISL,ioos:station:DISL:KATA:1,2019-06-09T14:56:00Z,30.2583,-88.2131,75.61,11111222 
DISL,ioos:station:DISL:KATA:1,2019-06-09T15:56:00Z,30.2583,-88.2131,69.12,11111222 
DISL,ioos:station:DISL:KATA:1,2019-06-09T16:56:00Z,30.2583,-88.2131,70.64,11111222 
DISL,ioos:station:DISL:KATA:1,2019-06-09T17:56:00Z,30.2583,-88.2131,70.04,11111222 
DISL,ioos:station:DISL:KATA:1,2019-06-09T18:56:00Z,30.2583,-88.2131,70.49,11111222 
DISL,ioos:station:DISL:KATA:1,2019-06-09T19:56:00Z,30.2583,-88.2131,70.22,11111222 
DISL,ioos:station:DISL:KATA:1,2019-06-09T20:56:00Z,30.2583,-88.2131,66.99,11111222 
DISL,ioos:station:DISL:KATA:1,2019-06-09T21:56:00Z,30.2583,-88.2131,61.56,11111222 
DISL,ioos:station:DISL:KATA:1,2019-06-09T22:56:00Z,30.2583,-88.2131,62.34,11111222 
DISL,ioos:station:DISL:KATA:1,2019-06-09T23:56:00Z,30.2583,-88.2131,62.88,11111222 
DISL,ioos:station:DISL:KATA:1,2019-06-10T00:56:00Z,30.2583,-88.2131,62.76,11111222 
DISL,ioos:station:DISL:KATA:1,2019-06-10T01:56:00Z,30.2583,-88.2131,63.72,11111222 
DISL,ioos:station:DISL:KATA:1,2019-06-10T02:56:00Z,30.2583,-88.2131,69.35,11111222 
DISL,ioos:station:DISL:KATA:1,2019-06-10T03:56:00Z,30.2583,-88.2131,67.55,11111222 
DISL,ioos:station:DISL:KATA:1,2019-06-10T04:56:00Z,30.2583,-88.2131,70.67,11111222 
DISL,ioos:station:DISL:KATA:1,2019-06-10T05:56:00Z,30.2583,-88.2131,73.38,11111222 
DISL,ioos:station:DISL:KATA:1,2019-06-10T06:56:00Z,30.2583,-88.2131,75.38,11111222 
DISL,ioos:station:DISL:KATA:1,2019-06-10T07:56:00Z,30.2583,-88.2131,79.82,11111222 
DISL,ioos:station:DISL:KATA:1,2019-06-10T08:56:00Z,30.2583,-88.2131,82.6,11111222 
DISL,ioos:station:DISL:KATA:1,2019-06-10T09:56:00Z,30.2583,-88.2131,83.0,11111222 
DISL,ioos:station:DISL:KATA:1,2019-06-10T10:56:00Z,30.2583,-88.2131,85.0,11111222 
DISL,ioos:station:DISL:KATA:1,2019-06-10T11:56:00Z,30.2583,-88.2131,83.9,11111222 
DISL,ioos:station:DISL:KATA:1,2019-06-10T12:56:00Z,30.2583,-88.2131,81.4,11111222 
DISL,ioos:station:DISL:KATA:1,2019-06-10T13:56:00Z,30.2583,-88.2131,78.37,11111222 
DISL,ioos:station:DISL:KATA:1,2019-06-10T14:56:00Z,30.2583,-88.2131,73.62,11111222 
DISL,ioos:station:DISL:KATA:1,2019-06-10T15:56:00Z,30.2583,-88.2131,70.96,11111222 
DISL,ioos:station:DISL:KATA:1,2019-06-10T16:56:00Z,30.2583,-88.2131,74.58,11111222 
DISL,ioos:station:DISL:KATA:1,2019-06-10T17:56:00Z,30.2583,-88.2131,70.1,11111222 
DISL,ioos:station:DISL:KATA:1,2019-06-10T18:56:00Z,30.2583,-88.2131,81.3,11111222 
DISL,ioos:station:DISL:KATA:1,2019-06-10T19:56:00Z,30.2583,-88.2131,79.93,11111222 
DISL,ioos:station:DISL:KATA:1,2019-06-10T20:56:00Z,30.2583,-88.2131,73.38,11111222 
DISL,ioos:station:DISL:KATA:1,2019-06-10T21:56:00Z,30.2583,-88.2131,75.4,11111222 
DISL,ioos:station:DISL:KATA:1,2019-06-10T22:56:00Z,30.2583,-88.2131,74.65,11111222 
DISL,ioos:station:DISL:KATA:1,2019-06-10T23:56:00Z,30.2583,-88.2131,75.95,11111222 
DISL,ioos:station:DISL:KATA:1,2019-06-11T00:56:00Z,30.2583,-88.2131,74.26,11111222 
DISL,ioos:station:DISL:KATA:1,2019-06-11T01:56:00Z,30.2583,-88.2131,71.48,11111222 
DISL,ioos:station:DISL:KATA:1,2019-06-11T02:56:00Z,30.2583,-88.2131,73.38,11111222 
DISL,ioos:station:DISL:KATA:1,2019-06-11T03:56:00Z,30.2583,-88.2131,69.58,11111222 
DISL,ioos:station:DISL:KATA:1,2019-06-11T04:56:00Z,30.2583,-88.2131,74.06,11111222 
DISL,ioos:station:DISL:KATA:1,2019-06-11T05:56:00Z,30.2583,-88.2131,73.31,11111222 
DISL,ioos:station:DISL:KATA:1,2019-06-11T06:56:00Z,30.2583,-88.2131,76.67,11111222 
DISL,ioos:station:DISL:KATA:1,2019-06-11T07:56:00Z,30.2583,-88.2131,77.49,11111222 
DISL,ioos:station:DISL:KATA:1,2019-06-11T08:56:00Z,30.2583,-88.2131,78.35,11111222 
DISL,ioos:station:DISL:KATA:1,2019-06-11T09:56:00Z,30.2583,-88.2131,79.78,11111222 
DISL,ioos:station:DISL:KATA:1,2019-06-11T10:56:00Z,30.2583,-88.2131,77.17,11111222 
DISL,ioos:station:DISL:KATA:1,2019-06-11T11:56:00Z,30.2583,-88.2131,82.1,11111222 
DISL,ioos:station:DISL:KATA:1,2019-06-11T12:56:00Z,30.2583,-88.2131,80.9,11111222 
DISL,ioos:station:DISL:KATA:1,2019-06-11T13:56:00Z,30.2583,-88.2131,77.61,11111222 
DISL,ioos:station:DISL:KATA:1,2019-06-11T14:56:00Z,30.2583,-88.2131,72.91,11111222 
DISL,ioos:station:DISL:KATA:1,2019-06-11T15:56:00Z,30.2583,-88.2131,72.33,11111222 
DISL,ioos:station:DISL:KATA:1,2019-06-11T16:56:00Z,30.2583,-88.2131,72.19,11111222 
DISL,ioos:station:DISL:KATA:1,2019-06-11T17:56:00Z,30.2583,-88.2131,72.23,11111222 
DISL,ioos:station:DISL:KATA:1,2019-06-11T20:56:00Z,30.2583,-88.2131,66.34,11111222 
DISL,ioos:station:DISL:KATA:1,2019-06-11T21:56:00Z,30.2583,-88.2131,67.84,11111222 
DISL,ioos:station:DISL:KATA:1,2019-06-11T22:56:00Z,30.2583,-88.2131,73.75,11111222 
DISL,ioos:station:DISL:KATA:1,2019-06-11T23:56:00Z,30.2583,-88.2131,74.26,11111222 
DISL,ioos:station:DISL:KATA:1,2019-06-12T00:56:00Z,30.2583,-88.2131,76.5,11111222 
DISL,ioos:station:DISL:KATA:1,2019-06-12T01:56:00Z,30.2583,-88.2131,71.24,11111222 
DISL,ioos:station:DISL:KATA:1,2019-06-12T02:56:00Z,30.2583,-88.2131,67.62,11111222 
DISL,ioos:station:DISL:KATA:1,2019-06-12T03:56:00Z,30.2583,-88.2131,71.58,11111222 
DISL,ioos:station:DISL:KATA:1,2019-06-12T04:56:00Z,30.2583,-88.2131,73.94,11111222 
DISL,ioos:station:DISL:KATA:1,2019-06-12T05:56:00Z,30.2583,-88.2131,74.8,11111222 
DISL,ioos:station:DISL:KATA:1,2019-06-12T06:56:00Z,30.2583,-88.2131,76.87,11111222 
DISL,ioos:station:DISL:KATA:1,2019-06-12T07:56:00Z,30.2583,-88.2131,76.26,11111222 
DISL,ioos:station:DISL:KATA:1,2019-06-12T08:56:00Z,30.2583,-88.2131,76.39,11111222 
DISL,ioos:station:DISL:KATA:1,2019-06-12T09:56:00Z,30.2583,-88.2131,77.88,11111222 
DISL,ioos:station:DISL:KATA:1,2019-06-12T10:56:00Z,30.2583,-88.2131,78.02,11111222 
DISL,ioos:station:DISL:KATA:1,2019-06-12T11:56:00Z,30.2583,-88.2131,75.1,11111222 
DISL,ioos:station:DISL:KATA:1,2019-06-12T12:56:00Z,30.2583,-88.2131,76.12,11111222 
DISL,ioos:station:DISL:KATA:1,2019-06-12T13:56:00Z,30.2583,-88.2131,76.62,11111222 
DISL,ioos:station:DISL:KATA:1,2019-06-12T14:56:00Z,30.2583,-88.2131,71.99,11111222 
DISL,ioos:station:DISL:KATA:1,2019-06-12T15:56:00Z,30.2583,-88.2131,70.46,11111222 
DISL,ioos:station:DISL:KATA:1,2019-06-12T16:56:00Z,30.2583,-88.2131,67.7,11111222 
DISL,ioos:station:DISL:KATA:1,2019-06-12T17:56:00Z,30.2583,-88.2131,71.41,11111222 
DISL,ioos:station:DISL:KATA:1,2019-06-12T18:56:00Z,30.2583,-88.2131,68.97,11111222 
DISL,ioos:station:DISL:KATA:1,2019-06-12T19:56:00Z,30.2583,-88.2131,70.19,11111222 
DISL,ioos:station:DISL:KATA:1,2019-06-12T20:56:00Z,30.2583,-88.2131,69.11,11111222 
DISL,ioos:station:DISL:KATA:1,2019-06-12T21:56:00Z,30.2583,-88.2131,69.21,11111222 
DISL,ioos:station:DISL:KATA:1,2019-06-12T22:56:00Z,30.2583,-88.2131,70.43,11111222 
DISL,ioos:station:DISL:KATA:1,2019-06-12T23:56:00Z,30.2583,-88.2131,72.02,11111222 
DISL,ioos:station:DISL:KATA:1,2019-06-13T00:56:00Z,30.2583,-88.2131,72.23,11111222 
DISL,ioos:station:DISL:KATA:1,2019-06-13T01:56:00Z,30.2583,-88.2131,72.09,11111222 
DISL,ioos:station:DISL:KATA:1,2019-06-13T02:56:00Z,30.2583,-88.2131,72.8,11111222 
DISL,ioos:station:DISL:KATA:1,2019-06-13T03:56:00Z,30.2583,-88.2131,56.05,11111222 
DISL,ioos:station:DISL:KATA:1,2019-06-13T04:56:00Z,30.2583,-88.2131,59.21,11111222 